YAOGAN 25C

导读 | 星芒AI

YAOGAN 25C 是中国于2021年发射的一颗遥感卫星,属于“遥感”系列,主要用于科学实验、国土资源普查、环境监测和灾害预警等领域。该卫星具备高分辨率成像能力,能够提供高质量的地球观测数据,支持国家在农业、林业、水利和城市规划等方面的应用需求。其发射进一步提升了中国在遥感技术领域的自主创新能力与数据获取能力。

基本信息
目录编号:
40340
目录名称:
YAOGAN 25C
国际标识:
2014-080C
轨道中心:
EARTH
卫星名称:
YAOGAN 25C
卫星全名:
--
卫星状态:
在轨 (已飞行3976 天)
发射日期:
2014-12-10 UTC
国别 :
中国 (CN)
星等 :
--
轨道信息
数据来源 国际轨道数据 AOE轨道数据
星历时间 2025-10-29T00:05:22+0800
14小时前
查看轨道信息
2025-10-28T23:00:00+0800
15小时前
查看轨道信息
半长轴 7467.679km 7467.68km
偏心率 0.0346447 0.0346571
轨道倾角 63.389° 63.388°
近地点辐角 8.507° 8.512°
升交点赤经 187.634° 187.752°
平近点角 352.163° 132.319°
近地点 830.828km 830.736km
远地点 1348.26km 1348.354km
周期 107.038分钟 107.038分钟
每日圈数 13.45316 13.453159
详细信息
使用方式:
暂无
2D轨道图
3D轨道图
轨道高度分析图
轨道倾角分析图
轨道综合分析图
查看轨道综合分析图